Location: Burzi?i
(45.0869°N, 16.0577°E)
Time: 11:18:54
(UTC+00:00)

GEOS 3 Rocket - Pass Details

Date: 29 October 2020
Orbit: 770 x 850 km, 115.0° (Epoch: 27 November)

Event Time Altitude Azimuth Distance (km) Brightness Sun altitude
Exits shadow 18:17:20 82° 84° (E) 850 3.5 -26.9°
Maximum altitude 18:17:28 84° 50° (NE) 848 3.5 -26.9°
Drops below altitude 10° 18:22:53 10° 323° (NW) 2,475 6.7 -27.9°
Sets 18:25:13 0° 323° (NW) 3,418 7.5 -28.3°
